RADUGA-1M 3

Last updated on Wed Jul 16 2025 00:02:47 GMT+0000 (Coordinated Universal Time)

1 39375U 13062A 25196.28004718 .00000159 00000+0 00000+0 0 9995 2 39375 5.0985 76.5086 0002495 270.9320 81.7471 1.00271974 42725
UTC large
Height (km)
Speed (km/s)
/
Latitude / Longitude
Inclination (degrees)
Orbital Period (minutes)
Azimuth
Elevation
Range (km)
Doppler Factor

Next 0 passes for location: London (51.5072 / 0.1276)

Sorry there are no passes over London.